This is the latest recevied weather packets stored in our database for station/object Winterlng. If no packets are shown the sender has not sent any weather packets the latest 10 day(s).
| Time | Temp. | Humidity | Pressure | Rain* | Wind** | Luminosity | Snow |
|---|---|---|---|---|---|---|---|
| 1778142732 | 9.44° C | 86% | 0 hPa | 6.1 mm | - | - | - |
| 1778140931 | 9.44° C | 88% | 0 hPa | 6.1 mm | - | - | - |
| 1778139132 | 8.89° C | 92% | 0 hPa | 6.1 mm | - | - | - |
| 1778137332 | 8.33° C | 94% | 0 hPa | 6.1 mm | - | - | - |
| 1778135532 | 7.22° C | 96% | 0 hPa | 6.1 mm | - | - | - |
| 1778133731 | 6.67° C | 95% | 0 hPa | 6.1 mm | - | - | - |
| 1778131931 | 6.67° C | 96% | 0 hPa | 6.1 mm | - | - | - |
| 1778130133 | 6.11° C | 95% | 0 hPa | 5.33 mm | - | - | - |
| 1778128331 | 6.11° C | 95% | 0 hPa | 5.08 mm | - | - | - |
| 1778126536 | 6.11° C | 95% | 0 hPa | 4.57 mm | - | - | - |
| 1778124731 | 5.56° C | 95% | 0 hPa | 4.32 mm | - | - | - |
| 1778122932 | 5.56° C | 95% | 0 hPa | 4.32 mm | - | - | - |
| 1778121132 | 5.56° C | 94% | 0 hPa | 4.32 mm | - | - | - |
| 1778119332 | 5.56° C | 94% | 0 hPa | 4.32 mm | - | - | - |
| 1778117533 | 5.56° C | 94% | 0 hPa | 4.32 mm | - | - | - |
| 1778115731 | 5.56° C | 94% | 0 hPa | 4.32 mm | - | - | - |
| 1778113929 | 5.56° C | 93% | 0 hPa | 4.32 mm | - | - | - |
| 1778112129 | 5.56° C | 94% | 0 hPa | 4.32 mm | - | - | - |
| 1778110329 | 6.11° C | 94% | 0 hPa | 4.32 mm | - | - | - |
| 1778108530 | 6.11° C | 93% | 0 hPa | 4.32 mm | - | - | - |
| 1778106730 | 6.11° C | 94% | 0 hPa | 4.32 mm | - | - | - |
| 1778104929 | 6.67° C | 94% | 0 hPa | 0 mm | - | - | - |
| 1778103130 | 6.67° C | 93% | 0 hPa | 4.32 mm | - | - | - |
| 1778101330 | 6.67° C | 92% | 0 hPa | 4.32 mm | - | - | - |
| 1778099531 | 7.22° C | 93% | 0 hPa | 4.32 mm | - | - | - |
* Rain since midnight (hover to see other rain measurements)
** Current wind speed in m/s (hover to see current wind gust speed)